Date,TemperatureHighF,TemperatureAvgF,TemperatureLowF,DewpointHighF,DewpointAvgF,DewpointLowF,HumidityHigh,HumidityAvg,HumidityLow,PressureMaxIn,PressureMinIn,WindSpeedMaxMPH,WindSpeedAvgMPH,GustSpeedMaxMPH,PrecipitationSumIn
2013-2-1,46.0,41.5,37.6,42.0,39.3,35.8,100,92,80,29.83,29.43,0,0,0,0.28
2013-2-2,41.5,38.0,28.4,37.7,30.8,24.3,94,76,59,30.23,29.57,0,0,0,0.01
2013-2-3,48.2,40.1,27.3,46.3,37.2,24.5,94,89,78,30.23,29.89,0,0,0,0.00
2013-2-4,50.1,46.9,42.5,46.7,39.4,32.5,93,76,53,29.93,29.69,0,0,0,0.00
2013-2-5,43.1,39.5,35.3,37.3,31.6,25.0,90,74,53,29.70,29.33,0,0,0,0.03
2013-2-6,42.6,39.4,35.0,37.8,32.0,25.8,92,75,63,30.05,29.35,0,0,0,0.09
2013-2-7,40.6,35.9,29.0,35.2,30.3,24.7,94,80,67,30.09,29.96,0,0,0,0.01
2013-2-8,41.5,36.8,30.9,35.8,32.8,29.5,100,86,68,30.12,29.99,0,0,0,0.00
2013-2-9,37.5,35.6,33.2,37.5,34.7,30.9,100,97,88,30.13,29.82,0,0,0,0.11
2013-2-10,41.1,38.2,33.5,41.1,38.2,33.5,100,100,100,29.82,29.20,0,0,0,0.81
2013-2-11,34.4,33.2,32.5,34.4,33.2,32.5,100,100,100,29.74,29.23,0,0,0,0.21
2013-2-12,35.0,33.6,32.7,33.4,30.2,27.7,100,88,81,30.10,29.73,0,0,0,0.00
2013-2-13,39.9,34.3,31.6,39.8,30.1,25.5,100,85,68,30.15,29.93,0,0,0,0.04
2013-2-14,51.1,45.2,38.2,47.4,42.1,35.8,100,89,64,29.96,29.70,0,0,0,0.12
2013-2-15,48.0,38.8,30.6,41.0,34.5,29.9,100,86,58,30.17,29.96,0,0,0,0.00
2013-2-16,48.5,40.9,32.7,41.1,36.6,30.9,98,85,58,30.21,30.16,0,0,0,0.00
2013-2-17,51.0,37.6,28.8,42.5,32.5,28.1,100,84,46,30.17,30.05,0,0,0,0.00
2013-2-18,48.0,37.4,30.9,38.6,33.1,29.0,100,86,56,30.11,30.05,0,0,0,0.01
2013-2-19,51.4,35.8,26.0,39.0,30.6,25.0,100,83,45,30.09,30.01,0,0,0,0.00
2013-2-20,41.6,36.1,31.2,38.3,31.6,25.4,100,84,63,30.21,30.05,0,0,0,0.01
2013-2-21,35.9,33.1,29.1,25.7,22.1,19.2,75,64,55,30.21,30.12,0,0,0,0.00
2013-2-22,35.3,32.8,31.5,25.2,21.9,19.5,77,64,58,30.12,30.06,0,0,0,0.00
2013-2-23,35.8,32.8,30.0,27.7,24.7,20.4,86,72,59,30.17,30.05,0,0,0,0.00
2013-2-24,35.0,33.3,31.0,28.4,26.7,24.3,87,77,67,30.25,30.15,0,0,0,0.00
2013-2-25,38.5,36.5,33.2,35.0,32.4,25.8,89,85,74,30.34,30.21,0,0,0,0.00
2013-2-26,39.5,38.0,35.9,39.5,37.2,33.7,100,97,88,30.52,30.33,0,0,0,0.04
2013-2-27,41.1,37.2,34.7,37.6,34.0,31.4,100,89,71,30.52,30.43,0,0,0,0.00
2013-2-28,45.8,38.7,31.8,36.3,33.7,29.8,94,82,67,30.44,30.29,0,0,0,0.00